Vorticity
nan nan nan nan nan nan nan nan nan nan nan nan nan nan nan nan nan nan nan nan nan nan nan nan nan nan nan nan nan nan nan nan nan nan nan nan nan nan nan nan nan nan nan
nan 13 11 11 11 10 6 8 7 7 7 9 6 7 8 7 10 6 8 8 8 6 8 8 7 6 6 6 7 8 8 9 10 8 6 5 6 6 6 5 7 8 nan
nan 10 11 11 11 13 14 10 9 8 9 9 9 9 9 7 5 4 7 9 10 9 7 7 8 8 7 7 7 9 8 8 9 9 6 6 6 5 5 5 8 8 nan
nan 9 9 8 8 8 11 11 13 14 11 8 9 9 9 10 8 8 5 6 9 11 11 11 7 8 7 7 8 8 7 7 7 9 9 7 5 5 7 7 9 7 nan
nan 11 10 8 7 10 8 7 7 8 10 12 11 11 9 8 10 11 9 8 6 6 15 15 10 7 8 8 7 7 7 7 8 8 8 7 9 8 6 7 9 7 nan
nan 12 11 9 10 10 8 8 8 9 9 7 9 10 11 11 10 7 8 6 5 5 6 12 17 14 15 9 9 9 7 6 7 8 9 9 8 8 8 8 8 8 nan
nan 10 10 8 10 10 9 10 11 11 11 10 10 11 11 12 10 11 8 6 9 9 9 5 2 8 17 16 9 9 10 7 7 7 8 9 9 9 9 9 8 8 nan
nan 10 9 9 8 9 7 8 12 13 11 10 8 9 12 12 13 15 9 11 9 8 7 7 6 6 4 14 18 14 10 11 8 7 7 9 9 9 9 9 9 8 nan
nan 8 8 10 9 9 8 8 8 10 11 8 10 11 9 7 10 12 10 9 9 6 7 11 8 6 6 6 14 18 14 11 11 9 7 8 9 10 9 9 9 8 nan
nan 9 8 9 11 9 8 8 8 9 9 9 11 10 8 8 5 9 15 9 10 9 8 10 11 10 7 9 8 13 18 9 11 10 9 9 8 9 9 9 9 9 nan
nan 7 8 9 11 9 8 8 9 10 10 9 8 7 11 12 11 11 8 13 13 9 10 10 10 12 12 8 10 14 14 13 10 10 11 9 9 8 8 9 9 9 nan
nan 5 9 10 9 9 9 9 9 10 10 10 9 10 11 9 8 9 10 11 9 10 12 13 12 10 10 11 11 14 14 10 11 12 10 11 11 9 9 9 9 9 nan
nan 6 9 10 9 8 10 10 11 12 12 11 9 10 9 9 10 9 8 10 10 10 13 12 10 10 11 10 13 14 9 12 12 11 10 9 11 12 11 10 10 9 nan
nan 9 10 9 10 10 10 12 13 11 11 11 10 12 11 11 10 9 9 10 11 11 9 6 10 10 9 13 17 11 10 15 9 10 11 10 10 11 11 12 11 11 nan
nan 9 11 9 8 12 12 13 12 10 12 12 12 12 14 14 11 11 11 10 12 10 8 11 8 8 10 12 14 13 13 16 13 11 9 9 9 10 10 9 10 11 nan
nan 9 10 11 10 11 12 13 11 10 13 13 10 11 12 12 12 12 12 10 13 14 11 10 9 10 9 6 5 10 19 18 13 9 8 9 9 9 11 11 10 9 nan
nan 9 9 10 10 11 12 11 11 10 11 11 10 10 10 13 14 11 11 11 11 12 16 13 11 9 6 8 10 6 8 11 18 13 9 9 9 9 8 11 12 11 nan
nan 9 9 10 10 10 10 10 11 10 9 10 10 9 10 12 12 13 12 12 12 11 11 11 14 15 13 9 9 9 7 10 14 17 15 11 10 10 9 8 8 10 nan
nan 8 9 9 9 10 11 10 10 11 10 9 9 9 9 11 12 13 12 13 12 12 13 14 11 10 14 18 16 14 11 10 10 15 16 12 12 11 11 11 11 9 nan
nan 10 9 10 8 9 10 11 11 10 9 9 10 9 9 11 12 14 12 11 13 13 13 14 13 10 11 12 15 15 16 17 12 11 10 14 14 14 14 11 11 10 nan
nan 9 9 9 9 10 9 12 11 9 9 9 10 10 5 4 13 19 15 10 13 15 13 12 12 10 9 7 11 15 10 13 19 18 9 8 11 11 15 17 17 16 nan
nan 10 10 7 11 4 7 16 14 11 8 9 9 9 6 4 9 10 13 14 14 13 14 13 11 9 9 10 8 9 11 11 15 15 13 8 11 9 11 18 18 16 nan
nan 9 9 9 7 2 8 16 16 15 8 8 8 11 11 5 9 12 8 9 7 9 15 13 10 10 9 10 12 10 12 12 9 3 13 19 16 11 13 16 20 15 nan
nan 8 8 10 8 2 4 17 21 14 8 8 7 9 10 7 9 15 13 10 9 7 9 12 10 12 11 10 12 13 13 15 18 16 18 15 13 11 11 16 21 19 nan
nan 8 8 8 10 2 2 17 24 12 10 8 8 5 9 4 3 19 18 11 11 9 5 7 11 9 10 13 18 17 12 15 18 12 16 18 11 17 9 10 14 16 nan
nan nan nan nan nan nan nan nan nan nan nan nan nan nan nan nan nan nan nan nan nan nan nan nan nan nan nan nan nan nan nan nan nan nan nan nan nan nan nan nan nan nan nan
CAPE
3381 3246 2999 2888 2854 2905 2772 2418 2452 2282 2190 2161 2167 2350 2617 2403 2109 1609 1205 435 503 984 1518 1605 1913 1913 2102 1771 1545 1406 1263 1182 1039 975 704 445 416 464 432 413 358 257 256
2203 2737 2729 2589 2544 2494 2467 2616 2644 2583 2666 2482 2315 2174 2225 2402 2589 2228 1462 977 353 444 912 1680 2175 2392 2434 2110 1540 1337 1276 1035 946 958 783 409 284 269 268 253 209 196 200
0 1 496 1730 1789 1847 2034 2380 2341 2341 2245 2289 2256 2578 2623 2476 2299 2432 2408 1431 792 205 367 707 1369 1847 2148 2371 1920 1264 1166 1009 823 790 749 467 280 159 110 96 131 140 141
0 0 0 44 216 236 467 1392 1853 1242 1663 2198 2147 2153 2011 2537 2398 2314 2262 2306 2019 1530 153 172 415 873 1316 1714 2108 1655 1305 1068 876 815 686 496 286 118 67 48 89 100 84
0 0 0 22 62 42 318 492 794 884 1558 1293 901 1751 1478 1586 2108 2403 2059 1827 2087 1642 1818 185 81 143 400 772 1259 1836 1630 1319 1038 942 751 496 335 195 72 54 70 80 60
1 0 0 1 1 1 2 122 582 668 603 650 954 999 956 1470 1868 1716 1357 1241 846 348 757 1117 868 283 33 179 544 1326 1961 1692 1380 1168 957 686 433 238 122 58 60 73 62
7 5 3 3 2 1 4 6 11 15 24 613 823 1252 830 737 1107 455 133 52 1 12 197 718 1272 1598 889 38 142 724 1736 1956 1611 1294 1050 818 512 281 147 96 80 79 82
4 2 7 7 8 6 7 11 11 12 1 2 580 330 470 662 632 462 155 87 70 0 12 133 512 1519 1775 1528 660 171 873 1475 1677 1450 1046 779 575 315 181 116 79 82 103
5 7 6 5 3 10 9 7 11 10 14 5 0 199 385 191 457 898 411 356 130 44 5 6 92 482 1021 1708 1416 221 37 386 965 1301 1152 829 570 392 220 146 110 96 95
6 7 6 6 5 5 8 9 13 12 10 9 11 3 36 247 125 523 893 672 508 311 132 56 46 177 536 1053 1075 949 11 0 107 697 1175 973 631 448 298 183 136 109 97
2 3 7 5 6 7 9 10 12 10 11 11 10 11 22 6 10 268 283 693 842 714 481 561 839 963 1079 1362 1512 1573 7 0 0 29 612 952 751 519 375 262 167 142 119
8 6 4 7 5 9 12 12 10 10 11 13 13 15 16 17 19 13 30 114 351 462 902 1055 1419 1368 1264 1134 962 890 381 0 0 0 29 377 588 516 442 336 264 204 159
11 16 14 7 5 7 9 10 8 7 11 16 19 15 11 14 14 12 27 15 16 161 437 902 1121 1401 1315 1401 1376 674 136 0 0 0 0 2 67 204 340 326 281 278 215
11 12 11 12 7 8 6 8 7 14 15 16 15 16 16 4 12 11 17 30 33 46 33 377 452 698 549 1293 1424 950 777 0 0 0 0 0 0 0 23 86 120 132 111
8 11 10 9 6 7 9 10 12 14 8 12 14 17 16 17 18 15 15 18 23 12 35 116 350 565 637 423 1017 969 1157 29 0 0 0 0 0 0 0 0 1 10 14
9 9 7 7 11 10 8 9 10 10 9 12 11 12 15 6 8 9 9 10 10 35 27 68 101 46 617 315 164 131 911 825 0 0 0 0 0 0 0 0 0 0 0
6 7 8 11 13 11 12 9 8 7 7 9 10 12 7 9 12 11 10 8 8 8 20 33 100 156 57 298 518 364 211 350 420 0 1 1 1 0 0 0 1 1 0
4 3 6 11 10 9 8 12 9 8 7 7 9 10 10 8 10 11 8 10 12 10 14 6 7 56 19 290 425 519 453 386 776 193 1 1 1 1 1 1 1 1 1
3 3 4 5 5 7 6 8 10 10 8 9 8 11 14 12 12 11 11 11 12 7 11 13 9 4 17 203 301 371 393 448 447 382 0 0 1 1 1 1 1 1 1
2 2 6 4 3 3 8 5 6 6 9 9 14 12 16 15 14 15 12 12 10 9 7 8 10 8 8 0 3 94 166 392 502 401 19 0 0 0 1 1 1 1 1
5 3 5 4 1 0 4 4 4 7 8 7 7 6 9 16 9 13 15 13 11 11 11 10 10 9 8 7 9 8 4 2 29 354 306 7 0 0 0 0 0 0 0
5 5 6 4 1 0 3 4 5 8 10 7 5 5 3 10 12 8 7 8 14 13 12 14 17 13 8 10 11 12 9 3 4 5 142 23 0 0 0 0 0 1 0
9 11 10 8 4 1 1 1 3 12 11 10 8 7 3 5 11 13 6 5 8 6 6 11 10 12 11 14 16 10 7 8 7 1 4 13 0 0 0 0 0 1 1
18 16 11 10 10 9 1 1 0 12 23 14 16 12 11 15 16 11 3 3 15 15 16 18 15 16 11 12 13 11 12 8 4 0 0 4 1 0 0 1 1 1 1
19 18 17 10 9 15 3 1 2 24 31 23 25 11 13 19 4 5 6 12 9 13 7 5 5 3 2 5 12 14 8 9 4 4 1 1 0 1 0 0 0 0 1
18 24 18 17 9 12 4 3 8 8 11 12 11 18 2 4 2 3 14 14 9 16 19 11 12 8 8 9 6 12 22 13 8 1 0 1 0 0 0 0 1 0 0